Location: Bieujac
(44.5398°N, 0.1549°W)
Time: 15:06:20
(UTC+00:00)

USA 234 - Pass Details

Date: 17 November 2019
Orbit: 1099 x 1108 km, 123.0° (Epoch: 09 December)

Event Time Altitude Azimuth Distance (km) Brightness Sun altitude
Rises 03:57:19 0° 61° (ENE) 3,919 7.1 -32.3°
Reaches altitude 10° 04:00:05 10° 51° (NE) 2,962 6.1 -31.8°
Maximum altitude 04:05:36 31° 353° (N) 1,843 4.3 -30.8°
Enters shadow 04:05:48 31° 350° (N) 1,845 4.3 -30.8°
